QPF
0.01 0.02 0.05 0.10 0.10 0.06 0.04 0.02 0.01 0.01 0.01 0.00 0.00 0.00 0.00 0.00 0.01 0.02 0.02 0.02 0.02 0.01 0.00 0.00 0.00 0.00 0.00 0.00 0.00 0.00 0.00 0.00 0.00 0.00 0.00 0.00 0.00 0.00 0.00 0.00 0.00 0.00 0.00
0.00 0.04 0.08 0.10 0.08 0.04 0.04 0.03 0.02 0.04 0.03 0.02 0.02 0.01 0.01 0.03 0.05 0.07 0.06 0.05 0.03 0.02 0.02 0.01 0.01 0.01 0.00 0.00 0.00 0.00 0.00 0.00 0.00 0.00 0.00 0.00 0.00 0.00 0.00 0.00 0.00 0.00 0.00
0.00 0.00 0.01 0.02 0.03 0.04 0.06 0.05 0.06 0.11 0.12 0.08 0.06 0.05 0.05 0.07 0.10 0.11 0.11 0.09 0.07 0.05 0.03 0.02 0.01 0.01 0.00 0.00 0.00 0.00 0.00 0.00 0.00 0.00 0.00 0.00 0.00 0.00 0.00 0.00 0.00 0.00 0.00
0.00 0.00 0.01 0.03 0.04 0.06 0.07 0.06 0.10 0.19 0.21 0.17 0.14 0.15 0.14 0.15 0.18 0.19 0.18 0.14 0.09 0.05 0.03 0.01 0.01 0.00 0.00 0.00 0.00 0.00 0.00 0.00 0.00 0.00 0.00 0.00 0.00 0.00 0.00 0.00 0.00 0.00 0.00
0.00 0.01 0.03 0.06 0.06 0.07 0.09 0.10 0.17 0.27 0.29 0.26 0.24 0.25 0.26 0.27 0.27 0.25 0.18 0.11 0.06 0.03 0.02 0.01 0.00 0.00 0.00 0.00 0.00 0.00 0.00 0.00 0.00 0.00 0.00 0.00 0.00 0.00 0.00 0.00 0.00 0.00 0.00
0.00 0.02 0.07 0.10 0.11 0.11 0.11 0.13 0.17 0.20 0.20 0.20 0.23 0.25 0.29 0.29 0.23 0.17 0.10 0.05 0.03 0.01 0.01 0.00 0.00 0.00 0.00 0.00 0.00 0.00 0.00 0.00 0.00 0.00 0.00 0.00 0.00 0.00 0.00 0.00 0.00 0.00 0.00
0.01 0.04 0.09 0.13 0.16 0.12 0.11 0.14 0.14 0.12 0.11 0.15 0.20 0.21 0.19 0.15 0.11 0.07 0.04 0.02 0.01 0.00 0.00 0.00 0.00 0.00 0.00 0.00 0.00 0.00 0.00 0.00 0.00 0.00 0.00 0.00 0.00 0.00 0.00 0.00 0.00 0.00 0.00
0.02 0.06 0.11 0.15 0.16 0.13 0.09 0.08 0.07 0.07 0.08 0.10 0.11 0.09 0.06 0.06 0.04 0.02 0.01 0.01 0.00 0.00 0.00 0.00 0.00 0.00 0.00 0.00 0.00 0.00 0.00 0.00 0.00 0.00 0.00 0.00 0.00 0.00 0.00 0.00 0.00 0.00 0.00
0.05 0.09 0.14 0.16 0.15 0.12 0.09 0.06 0.05 0.05 0.06 0.05 0.04 0.04 0.04 0.04 0.02 0.01 0.01 0.00 0.00 0.00 0.00 0.00 0.00 0.00 0.00 0.00 0.00 0.00 0.00 0.00 0.00 0.00 0.00 0.00 0.00 0.00 0.00 0.00 0.01 0.01 0.01
0.09 0.13 0.14 0.14 0.12 0.09 0.07 0.05 0.05 0.05 0.04 0.03 0.04 0.05 0.04 0.03 0.01 0.01 0.00 0.00 0.00 0.00 0.00 0.00 0.00 0.00 0.00 0.00 0.00 0.00 0.00 0.00 0.00 0.00 0.00 0.00 0.00 0.00 0.00 0.00 0.01 0.01 0.01
0.13 0.14 0.15 0.14 0.13 0.11 0.07 0.05 0.05 0.04 0.03 0.04 0.04 0.04 0.02 0.01 0.01 0.00 0.00 0.00 0.00 0.00 0.00 0.00 0.00 0.00 0.00 0.00 0.00 0.00 0.00 0.00 0.00 0.00 0.00 0.00 0.00 0.00 0.00 0.00 0.00 0.00 0.01
0.16 0.15 0.13 0.10 0.09 0.06 0.04 0.03 0.02 0.03 0.04 0.04 0.03 0.02 0.02 0.01 0.01 0.00 0.00 0.00 0.00 0.00 0.00 0.00 0.00 0.00 0.00 0.00 0.00 0.00 0.00 0.00 0.00 0.00 0.00 0.00 0.00 0.00 0.00 0.00 0.00 0.00 0.00
0.24 0.15 0.08 0.04 0.02 0.01 0.01 0.01 0.01 0.02 0.03 0.02 0.01 0.01 0.01 0.01 0.01 0.00 0.00 0.00 0.00 0.00 0.00 0.00 0.00 0.00 0.00 0.00 0.00 0.00 0.00 0.00 0.00 0.00 0.00 0.00 0.00 0.00 0.00 0.00 0.00 0.00 0.00
0.15 0.06 0.02 0.01 0.00 0.00 0.01 0.01 0.01 0.01 0.01 0.01 0.01 0.01 0.01 0.01 0.01 0.01 0.01 0.01 0.01 0.01 0.01 0.00 0.00 0.00 0.00 0.00 0.00 0.00 0.00 0.00 0.00 0.00 0.00 0.00 0.00 0.00 0.01 0.00 0.00 0.00 0.00
0.04 0.01 0.00 0.00 0.00 0.00 0.01 0.01 0.00 0.00 0.00 0.00 0.01 0.01 0.01 0.01 0.02 0.01 0.01 0.01 0.01 0.01 0.00 0.00 0.00 0.00 0.00 0.00 0.00 0.00 0.00 0.00 0.00 0.00 0.00 0.00 0.01 0.02 0.02 0.01 0.01 0.02 0.02
0.03 0.01 0.00 0.00 0.00 0.00 0.00 0.00 0.00 0.00 0.01 0.01 0.02 0.03 0.03 0.03 0.03 0.02 0.01 0.01 0.00 0.00 0.00 0.00 0.00 0.00 0.00 0.00 0.00 0.00 0.00 0.00 0.00 0.00 0.00 0.01 0.01 0.01 0.01 0.02 0.02 0.03 0.03
0.04 0.02 0.01 0.00 0.00 0.00 0.00 0.00 0.01 0.01 0.02 0.04 0.05 0.06 0.05 0.03 0.01 0.01 0.00 0.00 0.00 0.00 0.00 0.00 0.00 0.00 0.00 0.00 0.00 0.00 0.00 0.00 0.00 0.00 0.00 0.00 0.00 0.00 0.01 0.01 0.01 0.01 0.02
0.02 0.02 0.01 0.01 0.01 0.01 0.02 0.03 0.04 0.06 0.07 0.07 0.05 0.04 0.02 0.01 0.01 0.00 0.00 0.00 0.00 0.00 0.00 0.00 0.00 0.00 0.00 0.00 0.00 0.00 0.00 0.00 0.00 0.00 0.00 0.00 0.00 0.01 0.01 0.01 0.00 0.00 0.00
0.01 0.01 0.02 0.02 0.04 0.05 0.06 0.07 0.07 0.06 0.05 0.04 0.02 0.01 0.01 0.01 0.00 0.00 0.00 0.00 0.00 0.00 0.00 0.00 0.00 0.00 0.00 0.00 0.00 0.00 0.00 0.00 0.00 0.00 0.00 0.00 0.01 0.01 0.01 0.01 0.01 0.01 0.01
0.00 0.01 0.02 0.04 0.05 0.05 0.05 0.04 0.04 0.03 0.02 0.01 0.01 0.00 0.00 0.00 0.00 0.00 0.00 0.00 0.00 0.00 0.00 0.00 0.00 0.00 0.00 0.00 0.00 0.00 0.00 0.00 0.00 0.00 0.00 0.01 0.01 0.01 0.01 0.01 0.03 0.03 0.02
0.00 0.01 0.01 0.02 0.02 0.01 0.01 0.01 0.01 0.01 0.01 0.01 0.01 0.00 0.00 0.00 0.00 0.00 0.00 0.00 0.00 0.00 0.00 0.00 0.00 0.00 0.00 0.00 0.00 0.00 0.00 0.00 0.00 0.00 0.00 0.01 0.01 0.01 0.02 0.03 0.04 0.05 0.05
0.00 0.00 0.01 0.01 0.00 0.00 0.00 0.00 0.00 0.00 0.00 0.00 0.00 0.00 0.00 0.00 0.00 0.00 0.00 0.00 0.00 0.00 0.00 0.00 0.00 0.00 0.00 0.00 0.00 0.00 0.00 0.00 0.00 0.00 0.01 0.01 0.02 0.02 0.03 0.03 0.05 0.06 0.06
0.00 0.00 0.00 0.00 0.00 0.00 0.00 0.01 0.00 0.00 0.00 0.00 0.00 0.00 0.00 0.00 0.00 0.00 0.00 0.00 0.00 0.00 0.00 0.00 0.00 0.00 0.00 0.00 0.00 0.00 0.00 0.00 0.00 0.01 0.01 0.02 0.03 0.03 0.03 0.04 0.05 0.05 0.03
0.00 0.00 0.00 0.00 0.01 0.00 0.01 0.00 0.00 0.00 0.00 0.00 0.00 0.00 0.00 0.00 0.00 0.00 0.00 0.00 0.00 0.00 0.00 0.00 0.00 0.00 0.00 0.00 0.00 0.00 0.00 0.00 0.00 0.00 0.01 0.02 0.03 0.03 0.02 0.03 0.03 0.02 0.02
0.00 0.01 0.01 0.01 0.01 0.00 0.00 0.00 0.00 0.00 0.00 0.00 0.01 0.00 0.00 0.00 0.00 0.00 0.00 0.00 0.00 0.00 0.00 0.00 0.00 0.00 0.00 0.00 0.00 0.00 0.00 0.00 0.00 0.00 0.00 0.01 0.02 0.02 0.02 0.01 0.01 0.01 0.02
0.01 0.01 0.01 0.00 0.00 0.00 0.00 0.00 0.00 0.00 0.00 0.00 0.00 0.00 0.00 0.00 0.00 0.00 0.00 0.00 0.00 0.00 0.00 0.00 0.00 0.00 0.00 0.00 0.00 0.00 0.00 0.00 0.00 0.00 0.01 0.01 0.02 0.03 0.03 0.02 0.02 0.02 0.02
MSLP
1006.91 1007.28 1007.71 1008.16 1008.59 1008.97 1009.35 1009.73 1010.18 1010.72 1011.36 1012.08 1012.85 1013.62 1014.33 1014.95 1015.45 1015.84 1016.14 1016.39 1016.63 1016.91 1017.24 1017.63 1018.07 1018.52 1018.95 1019.33 1019.64 1019.87 1020.03 1020.13 1020.19 1020.22 1020.22 1020.18 1020.11 1019.98 1019.79 1019.54 1019.25 1018.94 1018.63
1006.48 1006.98 1007.53 1008.05 1008.51 1008.89 1009.23 1009.59 1010.01 1010.55 1011.22 1012.00 1012.87 1013.74 1014.56 1015.27 1015.84 1016.27 1016.59 1016.84 1017.08 1017.35 1017.68 1018.08 1018.52 1018.97 1019.40 1019.79 1020.09 1020.31 1020.47 1020.58 1020.65 1020.70 1020.73 1020.74 1020.71 1020.61 1020.43 1020.19 1019.88 1019.53 1019.18
1006.08 1006.72 1007.40 1008.02 1008.54 1008.94 1009.28 1009.60 1010.00 1010.54 1011.22 1012.05 1012.98 1013.93 1014.83 1015.61 1016.24 1016.71 1017.06 1017.32 1017.56 1017.82 1018.14 1018.51 1018.94 1019.37 1019.78 1020.13 1020.41 1020.61 1020.75 1020.85 1020.94 1021.02 1021.10 1021.16 1021.18 1021.13 1020.99 1020.76 1020.45 1020.09 1019.71
1005.80 1006.58 1007.38 1008.11 1008.70 1009.14 1009.48 1009.80 1010.19 1010.70 1011.38 1012.22 1013.17 1014.16 1015.11 1015.94 1016.61 1017.12 1017.49 1017.76 1018.01 1018.26 1018.56 1018.91 1019.30 1019.70 1020.06 1020.37 1020.60 1020.77 1020.89 1020.99 1021.08 1021.19 1021.31 1021.41 1021.48 1021.49 1021.39 1021.19 1020.89 1020.52 1020.12
1005.76 1006.64 1007.55 1008.37 1009.03 1009.52 1009.88 1010.19 1010.55 1011.04 1011.69 1012.51 1013.44 1014.43 1015.38 1016.23 1016.92 1017.45 1017.84 1018.13 1018.38 1018.64 1018.92 1019.25 1019.61 1019.96 1020.28 1020.53 1020.72 1020.85 1020.94 1021.02 1021.11 1021.23 1021.37 1021.51 1021.62 1021.66 1021.60 1021.42 1021.13 1020.76 1020.34
1006.04 1006.98 1007.97 1008.86 1009.57 1010.09 1010.47 1010.78 1011.11 1011.55 1012.15 1012.91 1013.79 1014.73 1015.65 1016.47 1017.16 1017.70 1018.11 1018.42 1018.68 1018.94 1019.22 1019.54 1019.87 1020.18 1020.45 1020.66 1020.81 1020.89 1020.95 1021.00 1021.07 1021.18 1021.32 1021.47 1021.60 1021.65 1021.60 1021.43 1021.15 1020.78 1020.35
1006.68 1007.65 1008.66 1009.58 1010.32 1010.87 1011.25 1011.54 1011.83 1012.22 1012.74 1013.42 1014.21 1015.07 1015.92 1016.70 1017.36 1017.89 1018.30 1018.62 1018.91 1019.19 1019.48 1019.79 1020.10 1020.39 1020.62 1020.80 1020.90 1020.95 1020.96 1020.98 1021.02 1021.10 1021.22 1021.34 1021.44 1021.48 1021.42 1021.25 1020.97 1020.59 1020.15
1007.68 1008.63 1009.62 1010.53 1011.27 1011.81 1012.18 1012.45 1012.70 1013.02 1013.46 1014.03 1014.71 1015.47 1016.22 1016.92 1017.54 1018.04 1018.45 1018.79 1019.10 1019.40 1019.70 1020.02 1020.32 1020.59 1020.81 1020.95 1021.03 1021.04 1021.02 1020.99 1020.99 1021.02 1021.08 1021.15 1021.20 1021.20 1021.11 1020.92 1020.63 1020.25 1019.81
1008.94 1009.83 1010.77 1011.64 1012.34 1012.86 1013.21 1013.45 1013.66 1013.92 1014.27 1014.74 1015.30 1015.93 1016.58 1017.19 1017.74 1018.21 1018.61 1018.96 1019.28 1019.60 1019.93 1020.25 1020.56 1020.82 1021.02 1021.15 1021.19 1021.18 1021.12 1021.05 1020.99 1020.96 1020.95 1020.95 1020.93 1020.86 1020.73 1020.51 1020.20 1019.82 1019.39
1010.33 1011.15 1012.01 1012.80 1013.46 1013.94 1014.27 1014.49 1014.66 1014.87 1015.14 1015.51 1015.96 1016.47 1017.01 1017.53 1018.01 1018.43 1018.82 1019.16 1019.50 1019.84 1020.17 1020.51 1020.81 1021.07 1021.26 1021.37 1021.39 1021.35 1021.26 1021.14 1021.03 1020.93 1020.84 1020.75 1020.65 1020.52 1020.33 1020.07 1019.75 1019.38 1018.97
1011.70 1012.44 1013.22 1013.94 1014.53 1014.97 1015.28 1015.49 1015.65 1015.82 1016.04 1016.32 1016.68 1017.08 1017.52 1017.95 1018.35 1018.74 1019.09 1019.43 1019.77 1020.12 1020.46 1020.79 1021.09 1021.34 1021.51 1021.60 1021.61 1021.54 1021.42 1021.26 1021.09 1020.92 1020.76 1020.59 1020.40 1020.19 1019.95 1019.65 1019.32 1018.95 1018.57
1012.95 1013.62 1014.31 1014.95 1015.49 1015.90 1016.19 1016.40 1016.56 1016.72 1016.90 1017.14 1017.42 1017.74 1018.08 1018.43 1018.78 1019.12 1019.45 1019.78 1020.11 1020.45 1020.79 1021.11 1021.39 1021.62 1021.76 1021.83 1021.82 1021.73 1021.57 1021.38 1021.17 1020.93 1020.70 1020.45 1020.18 1019.90 1019.59 1019.26 1018.91 1018.54 1018.17
1014.02 1014.62 1015.23 1015.80 1016.29 1016.68 1016.98 1017.20 1017.38 1017.54 1017.72 1017.92 1018.15 1018.40 1018.68 1018.97 1019.27 1019.57 1019.87 1020.19 1020.51 1020.84 1021.16 1021.45 1021.70 1021.90 1022.01 1022.05 1022.00 1021.89 1021.71 1021.48 1021.22 1020.94 1020.64 1020.32 1019.98 1019.63 1019.25 1018.87 1018.49 1018.11 1017.75
1014.91 1015.45 1015.99 1016.51 1016.96 1017.34 1017.64 1017.89 1018.09 1018.27 1018.45 1018.64 1018.84 1019.05 1019.28 1019.53 1019.79 1020.06 1020.35 1020.65 1020.96 1021.26 1021.56 1021.82 1022.03 1022.17 1022.24 1022.24 1022.16 1022.01 1021.80 1021.55 1021.25 1020.92 1020.57 1020.18 1019.77 1019.35 1018.91 1018.47 1018.04 1017.63 1017.25
1015.67 1016.16 1016.64 1017.10 1017.52 1017.88 1018.20 1018.47 1018.70 1018.91 1019.11 1019.29 1019.48 1019.67 1019.87 1020.09 1020.32 1020.57 1020.85 1021.13 1021.43 1021.71 1021.97 1022.19 1022.34 1022.43 1022.45 1022.39 1022.27 1022.08 1021.84 1021.55 1021.23 1020.86 1020.45 1020.01 1019.54 1019.04 1018.53 1018.02 1017.54 1017.08 1016.66
1016.38 1016.81 1017.24 1017.65 1018.03 1018.38 1018.70 1018.99 1019.25 1019.48 1019.69 1019.88 1020.06 1020.23 1020.42 1020.62 1020.84 1021.08 1021.35 1021.63 1021.90 1022.16 1022.38 1022.54 1022.64 1022.67 1022.62 1022.51 1022.33 1022.10 1021.83 1021.51 1021.15 1020.74 1020.29 1019.80 1019.26 1018.69 1018.11 1017.53 1016.97 1016.45 1015.98
1017.10 1017.48 1017.85 1018.20 1018.54 1018.87 1019.19 1019.48 1019.76 1020.00 1020.22 1020.41 1020.59 1020.76 1020.93 1021.12 1021.34 1021.58 1021.83 1022.10 1022.36 1022.58 1022.76 1022.87 1022.91 1022.87 1022.75 1022.57 1022.34 1022.06 1021.75 1021.40 1021.01 1020.57 1020.08 1019.54 1018.95 1018.32 1017.67 1017.02 1016.39 1015.80 1015.26
1017.86 1018.18 1018.49 1018.79 1019.09 1019.39 1019.69 1019.98 1020.25 1020.49 1020.71 1020.90 1021.08 1021.24 1021.41 1021.60 1021.81 1022.05 1022.30 1022.55 1022.78 1022.97 1023.11 1023.16 1023.13 1023.02 1022.83 1022.59 1022.30 1021.97 1021.62 1021.23 1020.81 1020.35 1019.83 1019.25 1018.62 1017.94 1017.23 1016.52 1015.83 1015.19 1014.59
1018.65 1018.92 1019.17 1019.42 1019.67 1019.93 1020.20 1020.47 1020.73 1020.96 1021.18 1021.37 1021.54 1021.70 1021.86 1022.05 1022.26 1022.49 1022.73 1022.96 1023.17 1023.32 1023.41 1023.40 1023.31 1023.13 1022.87 1022.57 1022.22 1021.85 1021.46 1021.04 1020.59 1020.10 1019.56 1018.96 1018.30 1017.58 1016.84 1016.09 1015.36 1014.68 1014.05
1019.42 1019.65 1019.85 1020.04 1020.25 1020.47 1020.70 1020.94 1021.18 1021.41 1021.61 1021.79 1021.96 1022.12 1022.29 1022.47 1022.68 1022.90 1023.13 1023.34 1023.51 1023.63 1023.66 1023.60 1023.44 1023.20 1022.89 1022.52 1022.13 1021.71 1021.28 1020.84 1020.37 1019.86 1019.30 1018.69 1018.01 1017.29 1016.53 1015.76 1015.02 1014.32 1013.69
1020.11 1020.30 1020.46 1020.61 1020.77 1020.95 1021.15 1021.37 1021.58 1021.79 1021.99 1022.17 1022.34 1022.50 1022.67 1022.86 1023.06 1023.27 1023.48 1023.67 1023.81 1023.88 1023.87 1023.75 1023.54 1023.25 1022.89 1022.48 1022.04 1021.59 1021.13 1020.66 1020.17 1019.65 1019.08 1018.46 1017.78 1017.06 1016.31 1015.55 1014.82 1014.13 1013.51
1020.65 1020.82 1020.95 1021.07 1021.19 1021.34 1021.51 1021.69 1021.89 1022.09 1022.28 1022.47 1022.64 1022.82 1023.00 1023.19 1023.39 1023.60 1023.79 1023.95 1024.06 1024.09 1024.03 1023.88 1023.63 1023.29 1022.89 1022.45 1021.98 1021.50 1021.02 1020.53 1020.03 1019.49 1018.92 1018.30 1017.63 1016.92 1016.18 1015.45 1014.74 1014.08 1013.48
1021.01 1021.17 1021.29 1021.38 1021.48 1021.59 1021.74 1021.90 1022.08 1022.28 1022.47 1022.67 1022.86 1023.05 1023.25 1023.45 1023.65 1023.85 1024.03 1024.17 1024.25 1024.25 1024.16 1023.97 1023.69 1023.33 1022.91 1022.45 1021.96 1021.47 1020.97 1020.47 1019.95 1019.41 1018.83 1018.21 1017.55 1016.85 1016.14 1015.43 1014.75 1014.12 1013.55
1021.19 1021.35 1021.46 1021.54 1021.61 1021.71 1021.83 1021.98 1022.15 1022.34 1022.54 1022.75 1022.96 1023.18 1023.39 1023.61 1023.83 1024.02 1024.19 1024.32 1024.38 1024.35 1024.24 1024.04 1023.75 1023.38 1022.95 1022.49 1021.99 1021.49 1020.99 1020.47 1019.95 1019.39 1018.81 1018.19 1017.53 1016.85 1016.16 1015.47 1014.82 1014.22 1013.68
1021.24 1021.40 1021.50 1021.56 1021.62 1021.70 1021.80 1021.93 1022.10 1022.29 1022.51 1022.73 1022.96 1023.20 1023.44 1023.67 1023.90 1024.10 1024.26 1024.37 1024.42 1024.39 1024.27 1024.07 1023.78 1023.42 1023.00 1022.55 1022.06 1021.57 1021.06 1020.54 1020.01 1019.45 1018.86 1018.24 1017.59 1016.92 1016.24 1015.57 1014.94 1014.35 1013.83
1021.21 1021.36 1021.45 1021.51 1021.55 1021.61 1021.70 1021.82 1021.98 1022.17 1022.39 1022.63 1022.88 1023.13 1023.39 1023.63 1023.87 1024.07 1024.23 1024.34 1024.39 1024.35 1024.24 1024.05 1023.77 1023.43 1023.04 1022.61 1022.15 1021.67 1021.17 1020.66 1020.13 1019.57 1018.98 1018.36 1017.72 1017.05 1016.38 1015.73 1015.10 1014.52 1014.00
Thickness
5800 5799 5797 5793 5787 5782 5777 5774 5767 5760 5755 5747 5740 5731 5723 5719 5714 5711 5708 5704 5700 5694 5688 5682 5677 5673 5668 5663 5659 5654 5649 5644 5642 5640 5636 5635 5632 5629 5625 5622 5619 5616 5613
5789 5790 5788 5784 5780 5776 5771 5766 5760 5754 5750 5744 5739 5730 5720 5711 5705 5699 5695 5691 5687 5682 5676 5670 5664 5660 5655 5650 5645 5640 5634 5629 5626 5623 5619 5614 5614 5613 5612 5608 5605 5601 5598
5791 5787 5783 5779 5774 5769 5764 5758 5753 5748 5742 5735 5728 5719 5709 5700 5692 5686 5681 5677 5673 5668 5662 5657 5652 5647 5641 5635 5630 5625 5620 5613 5610 5607 5603 5597 5593 5592 5595 5592 5588 5584 5580
5791 5787 5782 5776 5771 5764 5757 5750 5744 5739 5732 5726 5717 5708 5698 5688 5680 5674 5669 5665 5661 5656 5649 5644 5639 5633 5628 5623 5618 5612 5608 5602 5596 5592 5588 5583 5579 5575 5573 5574 5571 5568 5564
5786 5781 5777 5772 5765 5757 5750 5744 5736 5728 5722 5714 5706 5697 5688 5680 5671 5665 5659 5653 5648 5643 5638 5632 5626 5620 5615 5610 5606 5601 5597 5591 5585 5579 5573 5568 5563 5559 5554 5553 5554 5552 5550
5778 5771 5765 5760 5753 5747 5740 5734 5725 5718 5712 5704 5696 5689 5681 5672 5664 5657 5649 5643 5637 5632 5627 5621 5614 5609 5604 5599 5594 5590 5586 5580 5574 5567 5561 5554 5548 5543 5538 5536 5535 5535 5535
5769 5759 5752 5746 5740 5733 5726 5720 5712 5704 5699 5693 5686 5680 5674 5667 5659 5650 5642 5634 5627 5621 5615 5609 5603 5598 5593 5589 5584 5579 5573 5567 5561 5555 5549 5543 5538 5533 5528 5524 5523 5521 5519
5753 5745 5738 5732 5725 5717 5711 5705 5698 5690 5685 5681 5675 5669 5663 5655 5648 5641 5634 5625 5617 5610 5604 5598 5592 5586 5581 5577 5571 5566 5560 5554 5548 5543 5538 5532 5528 5523 5517 5511 5508 5507 5506
5732 5726 5719 5713 5705 5699 5693 5689 5683 5676 5671 5667 5662 5655 5649 5643 5636 5629 5622 5613 5605 5599 5592 5586 5580 5575 5569 5563 5557 5551 5546 5540 5534 5529 5524 5519 5514 5509 5503 5496 5490 5486 5491
5712 5706 5699 5692 5685 5680 5674 5670 5666 5661 5657 5653 5647 5640 5634 5629 5622 5615 5608 5600 5593 5586 5580 5573 5567 5561 5555 5548 5541 5535 5529 5524 5518 5513 5508 5503 5498 5492 5486 5480 5474 5467 5463
5693 5687 5682 5675 5669 5663 5658 5653 5649 5646 5642 5638 5633 5627 5621 5615 5609 5602 5594 5587 5580 5574 5567 5560 5553 5546 5537 5530 5523 5516 5511 5506 5501 5496 5492 5486 5481 5476 5470 5464 5458 5450 5443
5674 5670 5667 5662 5656 5650 5643 5640 5637 5634 5630 5625 5620 5613 5607 5601 5595 5587 5580 5574 5567 5559 5552 5545 5536 5528 5519 5512 5506 5500 5495 5490 5485 5480 5475 5470 5466 5461 5455 5449 5443 5435 5428
5659 5655 5652 5648 5644 5638 5633 5629 5625 5621 5617 5612 5606 5599 5593 5586 5579 5572 5565 5558 5550 5542 5535 5527 5519 5510 5503 5496 5490 5484 5478 5473 5469 5465 5460 5457 5452 5448 5443 5437 5431 5424 5418
5644 5640 5636 5633 5631 5625 5620 5616 5611 5607 5602 5596 5589 5582 5576 5569 5562 5555 5547 5540 5532 5525 5517 5510 5502 5494 5488 5481 5475 5469 5464 5459 5456 5452 5449 5445 5441 5436 5432 5427 5420 5414 5408
5632 5627 5620 5616 5614 5610 5605 5600 5595 5590 5585 5579 5571 5564 5558 5552 5545 5537 5529 5521 5514 5508 5501 5494 5487 5479 5473 5467 5460 5455 5451 5446 5443 5440 5437 5434 5430 5427 5421 5416 5410 5405 5402
5618 5614 5608 5603 5598 5594 5588 5583 5578 5572 5567 5561 5553 5547 5540 5534 5526 5518 5510 5503 5496 5490 5484 5477 5471 5465 5460 5454 5448 5443 5437 5433 5430 5427 5425 5421 5418 5415 5411 5406 5403 5400 5398
5604 5598 5592 5587 5581 5576 5571 5565 5560 5554 5548 5541 5535 5528 5522 5515 5509 5502 5494 5486 5479 5474 5467 5462 5457 5451 5446 5441 5436 5430 5425 5420 5417 5414 5412 5410 5408 5405 5403 5401 5399 5397 5396
5587 5580 5574 5568 5563 5557 5552 5547 5541 5535 5529 5522 5517 5511 5506 5499 5491 5484 5477 5471 5465 5459 5453 5447 5443 5438 5434 5430 5424 5418 5412 5408 5405 5403 5402 5400 5400 5399 5398 5397 5398 5399 5400
5568 5562 5556 5551 5545 5540 5534 5529 5523 5517 5512 5507 5502 5497 5491 5483 5475 5468 5462 5456 5450 5445 5440 5435 5431 5426 5421 5416 5410 5405 5400 5397 5395 5395 5395 5395 5396 5396 5394 5395 5398 5401 5404
5550 5545 5540 5535 5530 5524 5519 5514 5508 5503 5498 5493 5488 5482 5476 5469 5461 5454 5448 5442 5437 5432 5427 5422 5418 5413 5407 5403 5398 5394 5390 5388 5389 5390 5391 5392 5393 5393 5394 5396 5399 5403 5407
5535 5531 5527 5521 5516 5511 5506 5500 5495 5490 5486 5481 5475 5468 5462 5455 5447 5440 5435 5430 5424 5419 5414 5409 5405 5400 5396 5393 5390 5387 5384 5383 5384 5387 5389 5391 5392 5394 5396 5398 5402 5405 5408
5522 5518 5514 5509 5504 5499 5494 5488 5483 5480 5475 5469 5462 5455 5449 5443 5436 5429 5423 5417 5411 5405 5400 5395 5392 5390 5388 5386 5384 5382 5381 5381 5382 5385 5388 5390 5393 5396 5399 5402 5404 5407 5409
5510 5507 5503 5498 5493 5489 5483 5478 5475 5471 5465 5458 5450 5442 5436 5430 5424 5417 5410 5404 5398 5393 5389 5385 5382 5382 5382 5381 5380 5379 5379 5380 5381 5384 5388 5392 5395 5398 5402 5404 5407 5409 5410
5499 5496 5492 5488 5484 5479 5475 5470 5467 5463 5456 5447 5438 5431 5424 5417 5412 5406 5400 5394 5389 5384 5381 5378 5376 5375 5375 5375 5374 5374 5376 5378 5381 5385 5389 5393 5397 5400 5403 5406 5409 5410 5411
5489 5486 5483 5479 5475 5472 5467 5463 5458 5453 5445 5437 5429 5421 5414 5408 5402 5397 5392 5387 5383 5379 5375 5372 5369 5368 5369 5370 5369 5370 5373 5376 5380 5385 5389 5393 5397 5400 5404 5407 5410 5412 5413
5482 5479 5475 5472 5467 5463 5458 5454 5449 5444 5435 5427 5419 5411 5405 5399 5394 5389 5384 5382 5378 5375 5371 5368 5366 5365 5365 5366 5367 5370 5373 5377 5381 5385 5389 5393 5396 5400 5404 5407 5410 5413 5414